Regional Weather Roundup
Issued by NWS

Home | Current Version | Previous Version | Graphics & Text | Print | Product List | Glossary On
Versions: 1 2 3 4 5 6 7 8 9 10 11 12 13 14 15 16 17 18 19 20 21 22 23 24 25 26 27 28 29 30 31 32 33 34 35 36 37 38 39 40 41 42 43 44 45 46 47 48 49 50
751
ASUS43 KMKX 212221
RWRWI

WISCONSIN REGIONAL WEATHER ROUNDUP
NATIONAL WEATHER SERVICE MILWAUKEE/SULLIVAN WI
500 PM CDT THU SEP 21 2017

NOTE: "FAIR" INDICATES FEW OR NO CLOUDS BELOW 12,000 FEET WITH NO
SIGNIFICANT WEATHER AND/OR OBSTRUCTIONS TO VISIBILITY.

WIZ001-002-006>008-014>016-023>028-212300-
NORTHWEST WISCONSIN

CITY           SKY/WX    TMP DP  RH WIND       PRES   REMARKS
SUPERIOR ARPT  CLOUDY    61  58  91 NE15G21   29.91F
ASHLAND        SUNNY     68  58  70 NE12      29.94F
HAYWARD        PTSUNNY   77  67  71 S10       29.91S
SIREN          MOSUNNY   80  65  60 SE12G18   29.86F HX  82
CUMBERLAND     CLOUDY    73  64  73 SE10      29.90S
RICE LAKE      MOSUNNY   75  67  76 SE10      29.91F HAZE
CHETEK         PTSUNNY   75  69  80 SE9       29.90F
LADYSMITH      CLOUDY    75  68  77 SE12      29.95S
EAU CLAIRE     SUNNY     81  68  64 SE9       29.88F HX  84
MENOMONIE      SUNNY     81  68  63 SE14      29.87F HX  84
NEW RICHMOND   SUNNY     80  66  60 SE13G18   29.85F HX  82
OSCEOLA        MOSUNNY   82  67  61 SE12G20   29.86F HX  84
$$

WIZ003>005-009-010-017-018-212300-
NORTH CENTRAL WISCONSIN

CITY           SKY/WX    TMP DP  RH WIND       PRES   REMARKS
MANITOWISH WTR MOSUNNY   78  66  67 SE8       29.96F HX  80
ARBOR VITAE    SUNNY     78  67  68 S7        29.97F HX  80
WOODRUFF       SUNNY     78  67  68 S7        29.97F HX  80
RHINELANDER    CLOUDY    75  68  78 S10G18    30.00S
EAGLE RIVER    MOSUNNY   77  63  61 SE7       29.98F
LAND O LAKES   SUNNY     79  62  56 SE9       30.00F HX  80
PHILLIPS       CLOUDY    79  69  72 SE10      29.94F HX  81
TOMAHAWK       CLOUDY    73  65  77 SE6       29.99R
MEDFORD        MOSUNNY   73  66  81 SE7       29.97F
MERRILL        PTSUNNY   74  69  83 SE9       29.99S
$$

WIZ029-030-035-036-043>047-212300-
CENTRAL WISCONSIN

CITY           SKY/WX    TMP DP  RH WIND       PRES   REMARKS
WAUSAU         MOSUNNY   76  67  73 SE10      29.97F
MOSINEE        MOSUNNY   77  70  78 SE8       29.99F
MARSHFIELD     MOSUNNY   79  65  62 SE8G17    29.95F HX  81
STEVENS POINT  SUNNY     78  67  67 S8        29.98F HX  80
WAUPACA        SUNNY     85  66  52 S6        29.98S HX  87
WAUTOMA        CLOUDY    83  65  54 S3        29.97F HX  85
WISC RAPIDS    SUNNY     82  69  64 SE9       29.97F HX  85
CAMP DOUGLAS   MOSUNNY   84  66  54 SE8       29.94F HX  86
$$

WIZ011>013-019>022-031-037>040-048>050-212300-
NORTHEAST WISCONSIN

CITY           SKY/WX    TMP DP  RH WIND       PRES   REMARKS
ANTIGO         CLOUDY    72  68  87 S8        30.02S
SHAWANO        MOSUNNY   78  70  75 N3        29.99S HX  80
OCONTO         SUNNY     77  69  76 S5        29.99S
STURGEON BAY   SUNNY     74  67  78 SE8       30.00F
GREEN BAY      SUNNY     84  66  54 VRB7      29.98F HX  86
MANITOWOC      CLOUDY    72  66  81 SE8       30.00F
APPLETON       PTSUNNY   82  57  42 SW8       29.98S HX  82
CLINTONVILLE   SUNNY     82  64  54 SW7       29.98F HX  84
OSHKOSH        CLOUDY    84  64  50 S6        29.98S HX  85
$$

WIZ032>034-041-042-053>061-212300-
SOUTHWEST WISCONSIN

CITY           SKY/WX    TMP DP  RH WIND       PRES   REMARKS
LA CROSSE      SUNNY     88  63  42 SE14      29.88F HX  88
SPARTA         SUNNY     83  64  52 S9        29.92F HX  84
VIROQUA        SUNNY     83  65  54 S10G20    29.94S HX  85
BOSCOBEL       CLOUDY    89  59  36 S9G17     29.92S HX  88
PRAIRIE DU CHI SUNNY     85  59  40 SE8G22    29.90S HX  85
PLATTEVILLE    MOSUNNY   86  63  45 S15G21    29.96F HX  87
$$

WIZ056-057-062-063-064-067-068-212300-
SOUTH CENTRAL WISCONSIN

CITY           SKY/WX    TMP DP  RH WIND       PRES   REMARKS
REEDSBURG      MOSUNNY   84  64  51 SE7       29.95S HX  86
BARABOO/DELLS  MOSUNNY   83  60  45 S12       29.96S HX  83
LONE ROCK      CLOUDY    86  64  47 S13       29.94S HX  87
MINERAL POINT  CLOUDY    86  61  42 SE12      29.97S HX  86
MADISON        CLOUDY    84  68  58 SE8       29.96F HX  87
MIDDLETON      CLOUDY    84  68  57 SE9       29.98S HX  87
WATERTOWN      CLOUDY    83  71  67 E6        29.97F HX  87
MONROE         PTSUNNY   84  63  48 S13       29.98S HX  85
JANESVILLE     PTSUNNY   90  55  31 S10       29.97R HX  88
$$

WIZ051-052-058>065-066-070>072-212300-
SOUTHEAST WISCONSIN

CITY           SKY/WX    TMP DP  RH WIND       PRES   REMARKS
MILWAUKEE      CLOUDY    80  70  71 E7        29.98F HX  83
WAUKESHA       SUNNY     82  66  57 E10       29.99F HX  85
MILWAUKEE/TIMM SUNNY     82  63  51 SE9       29.99F HX  83
RACINE         PTSUNNY   80  69  69 SE8       30.00F HX  83
BURLINGTON     MOSUNNY   88  68  52 SE12      29.98S HX  91
KENOSHA        MOSUNNY   83  68  60 E8        29.99F HX  86
FOND DU LAC    CLOUDY    85  62  46 S7        29.98F HX  85
SHEBOYGAN      MOSUNNY   76  69  79 E5        29.99F
WEST BEND        N/A     79  70  73 CALM      29.99F HX  81
JUNEAU         CLOUDY    82  68  62 E3        29.99F HX  84
$$

LSZ147-162-212300-
LAKE SUPERIOR

STATION/POSITION TIME  TEMP    WIND        PRES    WAVE
                       AIR SEA DIR/SP/G            HT/PER
                 (UTC) (F)     (DEG/KT/KT) (MB)    (FT/S)
W MID LAKE BUOY  2150   57 54   50/ 16/ 17 1014.6F   2/ 3
DEVILS ISLAND    2200   60      60/ 15/ 18 1014.3F
SAXON HARBOR     2140   64      30/ 11/ 12 1013.2F
$$

LMZ867-665-643>646-212300-
LAKE MICHIGAN

STATION/POSITION TIME  TEMP    WIND        PRES    WAVE
                       AIR SEA DIR/SP/G            HT/PER
                 (UTC) (F)     (DEG/KT/KT) (MB)    (FT/S)
S GREEN BAY BUOY 2200   69 68   20/  4/  6 1015.5
N MID LAKE BUOY  2150   68 67  150/  4/  4 1016.4F   1/ 5
NORTHPORT PIER   2140   69     150/  6/  7 1015.9S
KEWAUNEE LAKESHO 2154   65      CALM  /  2 1015.2F
SHEBOYGAN LAKESH 2200   69     140/  4/  4 1015.1F
PORT WASHINGTON  2130   73     100/  3/  4 1016.3F
ATWATER BUOY     2109   70 67  330/  2/  4 1015.9F
MILWAUKEE LAKESH 2200   72      50/  4/  4   N/A
S MID LAKE BUOY  2150   73 71  110/  2/  2 1015.6F   0
KENOSHA   LAKESH 2200   76     180/  4/  6 1014.9
$$

TC  - TEMPERATURE IN CELSIUS
VSB - VISIBILITY IN STATUTE MILES
WCI - WIND CHILL INDEX
HX  - HEAT INDEX





USA.gov is the U.S. government's official web portal to all federal, state and local government web resources and services.